| time (UTC) | temp F | wind direction | speed MPH | gust MPH | rain 1hr in | rain 24hr in | rain mn in | humidity % | barometer mb |
| 20260508131944 | 49 | 248 | 4.0 | 15.0 | 0.00 | 0.22 | 0.00 | 72 | 1005.4 |
| 20260508130919 | 49 | 338 | 4.0 | 15.0 | 0.00 | 0.24 | 0.00 | 70 | 1005.3 |
| 20260508124742 | 50 | 333 | 3.0 | 13.0 | 0.00 | 0.33 | 0.00 | 71 | 1005.1 |
| 20260508122702 | 49 | 286 | 3.0 | 12.0 | 0.00 | 0.44 | 0.00 | 71 | 1005.0 |
| 20260508121720 | 49 | 205 | 4.0 | 12.0 | 0.00 | 0.48 | 0.00 | 71 | 1005.0 |
| 20260508120735 | 48 | 317 | 4.0 | 12.0 | 0.00 | 0.54 | 0.00 | 71 | 1004.8 |
| 20260508115755 | 48 | 250 | 3.0 | 10.0 | 0.00 | 0.61 | 0.00 | 74 | 1004.9 |
| 20260508114741 | 48 | 273 | 2.0 | 10.0 | 0.00 | 0.64 | 0.00 | 74 | 1004.8 |
| 20260508113709 | 48 | 257 | 1.0 | 9.0 | 0.00 | 0.64 | 0.00 | 75 | 1004.8 |
| 20260508112704 | 47 | 348 | 2.0 | 9.0 | 0.00 | 0.64 | 0.00 | 76 | 1004.6 |
| 20260508111649 | 47 | 277 | 2.0 | 8.0 | 0.00 | 0.64 | 0.00 | 80 | 1004.6 |
| 20260508110709 | 46 | 338 | 2.0 | 8.0 | 0.00 | 0.64 | 0.00 | 84 | 1004.5 |
| 20260508105658 | 45 | 288 | 1.0 | 6.0 | 0.00 | 0.64 | 0.00 | 87 | 1004.3 |
| 20260508104638 | 43 | 355 | 1.0 | 3.0 | 0.00 | 0.64 | 0.00 | 90 | 1004.3 |
| 20260508103611 | 42 | 303 | 0.0 | 3.0 | 0.00 | 0.64 | 0.00 | 91 | 1004.2 |
| 20260508102617 | 41 | 268 | 0.0 | 2.0 | 0.00 | 0.64 | 0.00 | 91 | 1004.3 |
| 20260508101545 | 40 | 319 | 0.0 | 2.0 | 0.00 | 0.64 | 0.00 | 91 | 1004.1 |
| 20260508100528 | 40 | 296 | 0.0 | 2.0 | 0.00 | 0.64 | 0.00 | 91 | 1004.1 |
| 20260508095511 | 39 | 275 | 0.0 | 0.0 | 0.00 | 0.64 | 0.00 | 91 | 1003.9 |
| 20260508094444 | 39 | 281 | 0.0 | 1.0 | 0.00 | 0.64 | 0.00 | 91 | 1003.8 |
| 20260508093446 | 39 | 286 | 0.0 | 2.0 | 0.00 | 0.64 | 0.00 | 91 | 1003.8 |
| 20260508092503 | 39 | 275 | 0.0 | 0.0 | 0.00 | 0.64 | 0.00 | 91 | 1003.7 |
| 20260508091443 | 40 | 275 | 0.0 | 0.0 | 0.00 | 0.65 | 0.00 | 91 | 1003.7 |
| 20260508090412 | 40 | 236 | 0.0 | 2.0 | 0.00 | 0.65 | 0.00 | 91 | 1003.6 |
| 20260508084245 | 41 | 323 | 0.0 | 3.0 | 0.00 | 0.66 | 0.00 | 91 | 1003.4 |
| 20260508083247 | 41 | 326 | 0.0 | 1.0 | 0.00 | 0.66 | 0.00 | 91 | 1003.3 |
| 20260508082259 | 41 | 342 | 0.0 | 0.0 | 0.00 | 0.66 | 0.00 | 91 | 1003.4 |
| 20260508081310 | 42 | 342 | 0.0 | 0.0 | 0.00 | 0.66 | 0.00 | 91 | 1003.5 |
| 20260508080304 | 42 | 342 | 0.0 | 2.0 | 0.00 | 0.66 | 0.00 | 91 | 1003.4 |
| 20260508075322 | 42 | 342 | 0.0 | 1.0 | 0.00 | 0.66 | 0.00 | 91 | 1003.5 |
| 20260508073231 | 42 | 341 | 0.0 | 0.0 | 0.00 | 0.66 | 0.00 | 92 | 1003.4 |
| 20260508072157 | 42 | 342 | 0.0 | 0.0 | 0.00 | 0.66 | 0.00 | 92 | 1003.5 |
| 20260508071145 | 42 | 341 | 0.0 | 1.0 | 0.00 | 0.66 | 0.00 | 92 | 1003.4 |
| 20260508070138 | 43 | 342 | 0.0 | 2.0 | 0.00 | 0.66 | 0.00 | 92 | 1003.4 |
| 20260508065156 | 43 | 350 | 0.0 | 2.0 | 0.00 | 0.67 | 0.00 | 92 | 1003.4 |
| 20260508064123 | 43 | 336 | 0.0 | 2.0 | 0.00 | 0.68 | 0.00 | 92 | 1003.4 |
| 20260508061955 | 43 | 355 | 0.0 | 0.0 | 0.00 | 0.71 | 0.00 | 92 | 1003.6 |
| 20260508061008 | 43 | 355 | 0.0 | 0.0 | 0.00 | 0.75 | 0.00 | 92 | 1003.6 |
| 20260508060031 | 43 | 355 | 0.0 | 0.0 | 0.00 | 0.76 | 0.00 | 92 | 1003.6 |
| 20260508055019 | 43 | 355 | 0.0 | 0.0 | 0.00 | 0.77 | 0.00 | 92 | 1003.6 |
| 20260508053945 | 42 | 51 | 0.0 | 1.0 | 0.00 | 0.79 | 0.00 | 92 | 1003.5 |
| 20260508052939 | 42 | 49 | 0.0 | 0.0 | 0.00 | 0.80 | 0.00 | 92 | 1003.4 |
| 20260508050811 | 42 | 335 | 0.0 | 1.0 | 0.00 | 0.85 | 0.00 | 92 | 1003.3 |
| 20260508045746 | 42 | 267 | 0.0 | 2.0 | 0.00 | 0.90 | 0.00 | 92 | 1003.3 |
| 20260508044733 | 43 | 313 | 0.0 | 1.0 | 0.00 | 0.92 | 0.00 | 92 | 1003.5 |
| 20260508043753 | 43 | 313 | 0.0 | 2.0 | 0.00 | 0.93 | 0.00 | 92 | 1003.7 |
| 20260508042805 | 43 | 263 | 0.0 | 1.0 | 0.00 | 0.93 | 0.00 | 92 | 1003.7 |
| 20260508040644 | 43 | 332 | 0.0 | 4.0 | 0.00 | 0.93 | 0.00 | 92 | 1003.8 |
| 20260508035613 | 43 | 261 | 0.0 | 2.0 | 0.00 | 0.93 | 0.00 | 92 | 1004.2 |
| 20260508034544 | 43 | 254 | 0.0 | 3.0 | 0.00 | 0.93 | 0.00 | 92 | 1004.2 |
| 20260508033609 | 43 | 278 | 0.0 | 3.0 | 0.00 | 0.93 | 0.00 | 92 | 1004.0 |
| 20260508032535 | 42 | 279 | 0.0 | 2.0 | 0.00 | 0.94 | 0.00 | 91 | 1004.0 |
| 20260508023126 | 43 | 250 | 0.0 | 0.0 | 0.00 | 0.94 | 0.94 | 90 | 1003.3 |
| 20260508020951 | 44 | 239 | 0.0 | 2.0 | 0.00 | 0.94 | 0.94 | 90 | 1003.8 |
| 20260508015931 | 44 | 231 | 0.0 | 2.0 | 0.00 | 0.94 | 0.94 | 90 | 1003.9 |
| 20260508014912 | 44 | 265 | 0.0 | 2.0 | 0.00 | 0.94 | 0.94 | 90 | 1003.9 |
| 20260508013920 | 44 | 263 | 0.0 | 2.0 | 0.00 | 0.94 | 0.94 | 89 | 1004.1 |
| 20260508012854 | 45 | 259 | 0.0 | 1.0 | 0.00 | 0.94 | 0.94 | 88 | 1003.9 |
| 20260508011912 | 45 | 267 | 0.0 | 1.0 | 0.00 | 0.94 | 0.94 | 88 | 1003.9 |
| 20260508005823 | 45 | 248 | 0.0 | 0.0 | 0.00 | 0.94 | 0.94 | 87 | 1003.9 |
| 20260508004846 | 46 | 249 | 0.0 | 0.0 | 0.00 | 0.94 | 0.94 | 87 | 1003.8 |
| 20260508003902 | 46 | 249 | 0.0 | 1.0 | 0.00 | 0.94 | 0.94 | 86 | 1003.6 |
| 20260508002855 | 46 | 252 | 0.0 | 0.0 | 0.00 | 0.94 | 0.94 | 86 | 1003.7 |
| 20260508001910 | 46 | 273 | 1.0 | 3.0 | 0.00 | 0.94 | 0.94 | 86 | 1003.6 |
| 20260508000859 | 47 | 259 | 0.0 | 6.0 | 0.00 | 0.94 | 0.94 | 85 | 1003.3 |
| 20260507235922 | 47 | 275 | 1.0 | 6.0 | 0.00 | 0.94 | 0.94 | 84 | 1003.1 |
| 20260507234940 | 47 | 248 | 0.0 | 2.0 | 0.00 | 0.94 | 0.94 | 83 | 1003.2 |
| 20260507232835 | 49 | 265 | 0.0 | 4.0 | 0.00 | 0.94 | 0.94 | 82 | 1003.2 |
| 20260507230707 | 50 | 277 | 1.0 | 6.0 | 0.00 | 0.94 | 0.94 | 79 | 1003.1 |
| 20260507225654 | 51 | 231 | 1.0 | 7.0 | 0.00 | 0.94 | 0.94 | 78 | 1003.0 |
| 20260507223610 | 53 | 279 | 1.0 | 5.0 | 0.00 | 0.94 | 0.94 | 77 | 1003.1 |
| 20260507221435 | 52 | 262 | 2.0 | 7.0 | 0.00 | 0.94 | 0.94 | 78 | 1003.0 |
| 20260507220423 | 52 | 335 | 2.0 | 8.0 | 0.00 | 0.94 | 0.94 | 77 | 1002.8 |
| 20260507215412 | 53 | 278 | 2.0 | 8.0 | 0.00 | 0.94 | 0.94 | 78 | 1002.9 |
| 20260507214342 | 52 | 302 | 3.0 | 8.0 | 0.00 | 0.94 | 0.94 | 79 | 1003.1 |
| 20260507213357 | 52 | 248 | 3.0 | 9.0 | 0.00 | 0.94 | 0.94 | 79 | 1003.2 |
| 20260507212339 | 53 | 232 | 2.0 | 9.0 | 0.00 | 0.94 | 0.94 | 79 | 1003.3 |
| 20260507205049 | 54 | 271 | 3.0 | 10.0 | 0.00 | 0.94 | 0.94 | 81 | 1003.2 |
| 20260507204112 | 54 | 240 | 2.0 | 10.0 | 0.00 | 0.94 | 0.94 | 82 | 1003.1 |
| 20260507203118 | 53 | 217 | 3.0 | 9.0 | 0.00 | 0.94 | 0.94 | 82 | 1003.1 |
| 20260507202047 | 54 | 250 | 3.0 | 7.0 | 0.00 | 0.94 | 0.94 | 84 | 1003.0 |
| 20260507201029 | 54 | 252 | 3.0 | 9.0 | 0.00 | 0.94 | 0.94 | 84 | 1002.8 |
| 20260507194848 | 53 | 237 | 4.0 | 9.0 | 0.00 | 0.94 | 0.94 | 87 | 1002.9 |
| 20260507193816 | 54 | 235 | 3.0 | 9.0 | 0.00 | 0.94 | 0.94 | 86 | 1002.9 |
| 20260507192825 | 54 | 252 | 4.0 | 9.0 | 0.00 | 0.94 | 0.94 | 87 | 1003.0 |
| 20260507190659 | 55 | 273 | 3.0 | 9.0 | 0.00 | 0.94 | 0.94 | 88 | 1003.0 |
| 20260507185650 | 56 | 277 | 2.0 | 8.0 | 0.00 | 0.94 | 0.94 | 90 | 1002.9 |
| 20260507182438 | 54 | 284 | 3.0 | 7.0 | 0.00 | 0.94 | 0.94 | 92 | 1002.8 |
| 20260507181425 | 54 | 286 | 3.0 | 8.0 | 0.00 | 0.94 | 0.94 | 93 | 1002.9 |
| 20260507180351 | 53 | 265 | 3.0 | 8.0 | 0.00 | 0.94 | 0.94 | 93 | 1002.7 |
| 20260507175325 | 53 | 275 | 2.0 | 8.0 | 0.00 | 0.94 | 0.94 | 93 | 1002.7 |
| 20260507174347 | 53 | 337 | 2.0 | 7.0 | 0.00 | 0.94 | 0.94 | 94 | 1002.5 |
| 20260507172224 | 52 | 306 | 1.0 | 4.0 | 0.00 | 0.94 | 0.94 | 94 | 1002.8 |
| 20260507171242 | 52 | 269 | 1.0 | 5.0 | 0.00 | 0.94 | 0.94 | 94 | 1002.9 |
| 20260507165054 | 51 | 262 | 0.0 | 3.0 | 0.00 | 0.94 | 0.94 | 94 | 1003.0 |
| 20260507164113 | 50 | 355 | 0.0 | 3.0 | 0.00 | 0.94 | 0.94 | 94 | 1003.0 |
| 20260507163113 | 50 | 317 | 0.0 | 3.0 | 0.00 | 0.94 | 0.94 | 94 | 1003.3 |
| 20260507162041 | 49 | 317 | 0.0 | 4.0 | 0.00 | 0.94 | 0.94 | 94 | 1003.4 |
| 20260507161100 | 48 | 355 | 1.0 | 6.0 | 0.00 | 0.94 | 0.94 | 94 | 1002.5 |
| 20260507160041 | 48 | 289 | 1.0 | 7.0 | 0.03 | 0.94 | 0.94 | 94 | 1003.7 |
| 20260507155050 | 47 | 315 | 2.0 | 7.0 | 0.04 | 0.94 | 0.94 | 94 | 1003.6 |
| 20260507152922 | 47 | 242 | 1.0 | 5.0 | 0.03 | 0.92 | 0.92 | 94 | 1003.5 |
| 20260507151934 | 47 | 275 | 0.0 | 5.0 | 0.05 | 0.92 | 0.92 | 94 | 1002.8 |
| 20260507150906 | 47 | 314 | 0.0 | 6.0 | 0.13 | 0.91 | 0.91 | 94 | 1002.9 |
| 20260507145902 | 47 | 269 | 1.0 | 6.0 | 0.31 | 0.87 | 0.88 | 93 | 1003.5 |
| 20260507144837 | 48 | 242 | 2.0 | 5.0 | 0.11 | 0.85 | 0.85 | 93 | 1003.8 |
| 20260507143807 | 48 | 223 | 1.0 | 3.0 | 0.07 | 0.82 | 0.82 | 94 | 1003.6 |
| 20260507142744 | 49 | 279 | 1.0 | 3.0 | 0.00 | 0.81 | 0.81 | 94 | 1003.6 |
| 20260507141747 | 48 | 220 | 0.0 | 1.0 | 0.00 | 0.81 | 0.81 | 94 | 1003.2 |
| 20260507140811 | 48 | 268 | 0.0 | 0.0 | 0.00 | 0.80 | 0.81 | 93 | 1003.1 |
| 20260507135827 | 48 | 259 | 0.0 | 2.0 | 0.03 | 0.80 | 0.80 | 94 | 1003.3 |
| 20260507134830 | 48 | 156 | 0.0 | 2.0 | 0.08 | 0.80 | 0.80 | 94 | 1003.3 |
| 20260507133803 | 48 | 251 | 1.0 | 5.0 | 0.19 | 0.77 | 0.77 | 93 | 1003.6 |
| 20260507132736 | 48 | 149 | 0.0 | 5.0 | 0.12 | 0.74 | 0.74 | 94 | 1004.3 |